Location: L�Ave Maria
(50.7161°N, 1.5911°E)
Time: 13:10:35
(UTC+00:00)

Cosmos 405 - Pass Details

Date: 10 July 2020
Orbit: 450 x 465 km, 81.3° (Epoch: 06 August)

Event Time Altitude Azimuth Distance (km) Brightness Sun altitude
Rises 23:45:37 0° 341° (NNW) 2,506 8.2 -17.2°
Reaches altitude 10° 23:47:48 10° 334° (NNW) 1,623 6.8 -17.2°
Maximum altitude 23:51:07 39° 264° (W) 714 3.8 -17.2°
Enters shadow 23:52:01 32° 228° (SW) 814 3.8 -17.2°
